#�ϑ�����,���ϕ���,���ϕ���,�ő啗��,�ő啗����������,�ő�u�ԕ���,�ő�u�ԕ�����������
#(�N����),(m/s)   ,(16����),(m/s)   ,(16����)        ,(m/s)       ,(16����)            
2013/4/3 0:01,7.4,15,7.5,15,12.7,15
2013/4/3 0:02,7.4,15,7.4,15,11,16
2013/4/3 0:03,7.3,15,7.4,15,12.2,16
2013/4/3 0:04,7.4,15,7.4,15,12.3,16
2013/4/3 0:05,7.5,15,7.5,15,11.3,15
2013/4/3 0:06,7.3,15,7.5,15,11.5,15
2013/4/3 0:07,7.2,15,7.3,15,10.7,15
2013/4/3 0:08,7.3,15,7.3,15,13.6,16
2013/4/3 0:09,7.6,15,7.6,15,11.8,15
2013/4/3 0:10,7.2,15,7.5,15,10.1,16
2013/4/3 0:11,7.1,15,7.3,15,12.5,15
2013/4/3 0:12,7.2,15,7.2,15,13.9,14
2013/4/3 0:13,7,15,7.2,15,13.6,15
2013/4/3 0:14,7.1,15,7.1,15,14.7,16
2013/4/3 0:15,6.9,15,7.1,15,10.2,16
2013/4/3 0:16,6.9,15,6.9,15,10.9,15
2013/4/3 0:17,7,15,7,15,10.8,15
2013/4/3 0:18,6.8,15,7,15,10.5,14
2013/4/3 0:19,6.9,15,6.9,15,14.9,15
2013/4/3 0:20,7,15,7,15,10.3,14
2013/4/3 0:21,6.9,15,6.9,15,11.7,15
2013/4/3 0:22,7,15,7.2,15,14.8,15
2013/4/3 0:23,7.1,15,7.1,15,13.4,14
2013/4/3 0:24,7.1,15,7.2,15,13.6,16
2013/4/3 0:25,7.3,15,7.3,15,12.8,15
2013/4/3 0:26,7.6,15,7.6,15,13.3,14
2013/4/3 0:27,7.4,15,7.6,15,9.7,15
2013/4/3 0:28,7.4,15,7.5,15,14.5,16
2013/4/3 0:29,7.7,15,7.7,15,18,15
2013/4/3 0:30,7.8,15,7.8,15,15.3,15
2013/4/3 0:31,7.9,15,8,15,13.5,15
2013/4/3 0:32,7.7,15,7.9,15,9.7,15
2013/4/3 0:33,7.9,15,7.9,15,16.1,15
2013/4/3 0:34,7.8,15,7.9,15,11.9,16
2013/4/3 0:35,7.5,15,7.8,15,11.1,14
2013/4/3 0:36,7.6,15,7.6,15,14.1,16
2013/4/3 0:37,7.6,15,7.7,15,11.8,15
2013/4/3 0:38,7.8,15,7.8,15,11.9,16
2013/4/3 0:39,7.3,15,7.7,15,13.3,15
2013/4/3 0:40,7.6,15,7.6,15,15.1,15
2013/4/3 0:41,7.4,15,7.5,15,12.8,15
2013/4/3 0:42,7.9,15,7.9,15,14.2,16
2013/4/3 0:43,7.8,15,7.9,15,16.8,16
2013/4/3 0:44,7.9,15,7.9,15,14.1,15
2013/4/3 0:45,8.1,15,8.2,15,14.3,16
2013/4/3 0:46,7.9,15,8.1,15,12.4,15
2013/4/3 0:47,8.1,16,8.1,15,13.6,1
2013/4/3 0:48,8.1,15,8.1,15,12.5,15
2013/4/3 0:49,8.4,15,8.5,15,17.1,15
2013/4/3 0:50,8.4,15,8.5,15,16.9,15
2013/4/3 0:51,8.7,15,8.8,15,16.2,15
2013/4/3 0:52,8.4,15,8.8,15,13.9,15
2013/4/3 0:53,8.6,15,8.6,15,17.2,16
2013/4/3 0:54,8.7,16,8.8,15,16.8,15
2013/4/3 0:55,9,15,9,15,16.6,16
2013/4/3 0:56,9.3,16,9.3,16,14.2,16
2013/4/3 0:57,9.4,15,9.4,15,13.9,16
2013/4/3 0:58,9.7,16,9.7,16,15.1,15
2013/4/3 0:59,9.6,16,9.7,16,15.1,15
2013/4/3 1:00,9.1,16,9.6,16,10.9,15
2013/4/3 1:01,8.8,16,9,16,14.9,16
2013/4/3 1:02,8.9,16,8.9,16,13.5,16
2013/4/3 1:03,8.6,16,9,16,13.4,1
2013/4/3 1:04,8.4,16,8.6,16,12.6,16
2013/4/3 1:05,8.1,16,8.4,16,12.6,15
2013/4/3 1:06,8,16,8,16,15,16
2013/4/3 1:07,8.1,16,8.1,16,13.1,16
2013/4/3 1:08,7.6,16,8.1,16,12.4,1
2013/4/3 1:09,7.4,16,7.6,16,11.8,16
2013/4/3 1:10,7.5,16,7.5,16,12.7,15
2013/4/3 1:11,7.3,16,7.6,16,14.7,16
2013/4/3 1:12,7.4,16,7.4,16,14.8,16
2013/4/3 1:13,7.6,16,7.6,16,14,16
2013/4/3 1:14,7.6,15,7.8,16,13,16
2013/4/3 1:15,7.5,16,7.7,16,12.6,15
2013/4/3 1:16,7.4,16,7.6,16,13,16
2013/4/3 1:17,7.1,16,7.3,16,11.1,15
2013/4/3 1:18,7.3,16,7.3,15,16.6,16
2013/4/3 1:19,7.2,15,7.3,15,9.8,14
2013/4/3 1:20,7.2,16,7.4,15,12.3,15
2013/4/3 1:21,7.6,16,7.6,15,13.2,15
2013/4/3 1:22,7.3,16,7.6,15,12.7,16
2013/4/3 1:23,7.1,16,7.2,15,13.3,15
2013/4/3 1:24,7.3,16,7.3,16,15.1,16
2013/4/3 1:25,7.5,16,7.6,16,14.8,16
2013/4/3 1:26,7.7,16,7.7,16,14.9,16
2013/4/3 1:27,8.1,16,8.1,16,18.1,15
2013/4/3 1:28,8.1,16,8.1,16,13.3,1
2013/4/3 1:29,8.2,16,8.2,16,13.9,16
2013/4/3 1:30,8.5,16,8.5,16,17.9,16
2013/4/3 1:31,8.5,16,8.5,16,15.7,16
2013/4/3 1:32,9,15,9,15,17.7,16
2013/4/3 1:33,9.1,15,9.2,15,14.7,16
2013/4/3 1:34,9.2,15,9.2,15,17.7,15
2013/4/3 1:35,9,15,9.2,15,16.2,16
2013/4/3 1:36,8.9,16,9,15,16.9,16
2013/4/3 1:37,8.7,16,8.9,15,14.2,16
2013/4/3 1:38,8.8,16,8.8,15,16,16
2013/4/3 1:39,9,16,9,15,14.1,16
2013/4/3 1:40,8.7,16,9.1,15,16.5,15
2013/4/3 1:41,8.6,16,8.8,15,14.8,16
2013/4/3 1:42,8.4,16,8.6,15,14.5,15
2013/4/3 1:43,8.1,16,8.4,15,12.2,16
2013/4/3 1:44,7.7,16,8.1,15,11.6,16
2013/4/3 1:45,7.9,16,7.9,16,15,16
2013/4/3 1:46,7.9,16,8,16,16.2,16
2013/4/3 1:47,7.9,16,8,16,12.8,16
2013/4/3 1:48,7.6,16,7.9,16,10.2,16
2013/4/3 1:49,7.5,16,7.6,16,10.9,1
2013/4/3 1:50,7.2,16,7.3,16,9.5,16
2013/4/3 1:51,7.1,16,7.2,16,12.8,16
2013/4/3 1:52,6.9,16,7.1,16,10.6,1
2013/4/3 1:53,7.3,16,7.3,16,13.9,1
2013/4/3 1:54,7.5,16,7.5,16,13.6,16
2013/4/3 1:55,7.2,16,7.5,16,12.7,16
2013/4/3 1:56,7.1,16,7.2,16,13.9,15
2013/4/3 1:57,7,16,7.2,16,11.8,1
2013/4/3 1:58,7.1,16,7.1,16,10.7,16
2013/4/3 1:59,7.2,16,7.2,16,10.9,16
2013/4/3 2:00,7.4,16,7.5,16,11.1,15
2013/4/3 2:01,7.3,16,7.5,16,9.9,15
2013/4/3 2:02,7.3,16,7.4,16,12.2,15
2013/4/3 2:03,7.1,16,7.3,16,13.6,16
2013/4/3 2:04,7.1,16,7.2,16,16.9,16
2013/4/3 2:05,7.2,16,7.3,16,13.3,16
2013/4/3 2:06,7.4,16,7.4,16,16.6,16
2013/4/3 2:07,7.4,16,7.5,16,12.6,16
2013/4/3 2:08,7.4,16,7.5,16,11.5,15
2013/4/3 2:09,7.5,16,7.6,16,13.8,15
2013/4/3 2:10,7.5,16,7.6,16,14.9,15
2013/4/3 2:11,7.7,16,7.7,16,13.1,16
2013/4/3 2:12,7.7,16,7.7,16,9.1,16
2013/4/3 2:13,7.6,16,7.8,16,13,15
2013/4/3 2:14,7.5,16,7.6,16,11.6,16
2013/4/3 2:15,7.6,16,7.6,16,11.5,16
2013/4/3 2:16,7.3,16,7.6,16,12.8,16
2013/4/3 2:17,7.3,16,7.3,16,10.1,15
2013/4/3 2:18,6.9,16,7.2,16,8.9,15
2013/4/3 2:19,6.5,16,6.9,16,9.1,15
2013/4/3 2:20,6.3,16,6.5,16,11.5,15
2013/4/3 2:21,6.5,16,6.5,16,17.2,15
2013/4/3 2:22,6.6,16,6.7,16,13.3,15
2013/4/3 2:23,6.3,16,6.6,16,9.1,16
2013/4/3 2:24,6.4,16,6.4,16,11.9,15
2013/4/3 2:25,6.4,16,6.5,16,13,1
2013/4/3 2:26,6.1,16,6.4,16,9.8,16
2013/4/3 2:27,6.1,16,6.2,16,11.7,15
2013/4/3 2:28,6.3,16,6.3,16,11.1,16
2013/4/3 2:29,6.5,16,6.6,16,10.7,15
2013/4/3 2:30,6.2,16,6.5,16,8.4,1
2013/4/3 2:31,5.9,16,6.2,16,11.3,15
2013/4/3 2:32,5.7,16,5.9,16,8.6,1
2013/4/3 2:33,6.3,16,6.3,16,17.7,16
2013/4/3 2:34,6.2,16,6.3,16,11.6,1
2013/4/3 2:35,6.3,16,6.4,16,15.3,16
2013/4/3 2:36,6.8,16,6.8,16,14.3,15
2013/4/3 2:37,6.8,16,6.9,16,13.9,15
2013/4/3 2:38,6.9,16,6.9,16,11.9,1
2013/4/3 2:39,6.8,16,7,16,11,16
2013/4/3 2:40,7.2,16,7.2,16,15,16
2013/4/3 2:41,7.5,16,7.5,16,15.1,16
2013/4/3 2:42,7.8,16,7.8,16,13.8,16
2013/4/3 2:43,7.5,16,7.9,16,11.3,15
2013/4/3 2:44,7.4,16,7.6,16,11.6,14
2013/4/3 2:45,7.3,16,7.4,16,16.1,16
2013/4/3 2:46,7.2,16,7.3,16,13.5,16
2013/4/3 2:47,7.7,16,7.7,16,15.8,16
2013/4/3 2:48,7.9,16,7.9,16,12.8,15
2013/4/3 2:49,8,16,8.1,16,12.5,16
2013/4/3 2:50,8,16,8.1,16,12.4,16
2013/4/3 2:51,7.7,16,7.9,16,14.7,14
2013/4/3 2:52,7.8,16,7.8,16,14.7,16
2013/4/3 2:53,8.1,16,8.1,16,14,14
2013/4/3 2:54,8.2,16,8.3,16,18.6,16
2013/4/3 2:55,8.4,16,8.4,16,17.8,1
2013/4/3 2:56,8.3,16,8.5,16,13.8,16
2013/4/3 2:57,7.8,16,8.2,16,9.5,15
2013/4/3 2:58,7.6,16,7.8,16,9.8,15
2013/4/3 2:59,7.8,16,7.8,16,12.3,15
2013/4/3 3:00,8,16,8,16,14.1,15
2013/4/3 3:01,8,16,8,16,14.7,16
2013/4/3 3:02,7.5,16,8,16,7.8,16
2013/4/3 3:03,7.1,16,7.4,16,6.3,16
2013/4/3 3:04,6.9,16,7,16,9.5,14
2013/4/3 3:05,6.3,15,6.8,16,9.3,15
2013/4/3 3:06,6.2,15,6.3,16,10.7,15
2013/4/3 3:07,6.1,16,6.3,16,7.1,15
2013/4/3 3:08,5.8,15,6.1,16,7,14
2013/4/3 3:09,5.5,16,5.8,16,11.1,1
2013/4/3 3:10,4.9,16,5.5,16,6.3,15
2013/4/3 3:11,4.8,15,4.9,16,12.3,16
2013/4/3 3:12,5.1,15,5.1,16,17,15
2013/4/3 3:13,5.4,15,5.4,16,12.5,14
2013/4/3 3:14,5.5,15,5.5,16,10.3,11
2013/4/3 3:15,5.5,14,5.6,15,6.3,8
2013/4/3 3:16,4.9,14,5.4,15,3.7,7
2013/4/3 3:17,4.7,14,4.9,16,4.7,3
2013/4/3 3:18,4.6,14,4.7,15,5.6,16
2013/4/3 3:19,4.3,14,4.6,14,5,16
2013/4/3 3:20,4.2,14,4.3,14,4.9,15
2013/4/3 3:21,3.7,14,4.2,14,3,1
2013/4/3 3:22,3.3,14,3.7,14,4.1,15
2013/4/3 3:23,2.9,15,3.3,14,6.8,16
2013/4/3 3:24,2.7,15,2.8,14,7.1,16
2013/4/3 3:25,2.6,16,2.7,14,6.5,16
2013/4/3 3:26,2.8,15,2.8,14,6.4,14
2013/4/3 3:27,2.9,15,2.9,14,5.8,15
2013/4/3 3:28,3.2,15,3.2,14,9.4,3
2013/4/3 3:29,3.4,15,3.4,14,8.6,16
2013/4/3 3:30,3.7,15,3.7,14,9.9,15
2013/4/3 3:31,4.3,15,4.3,15,12.3,16
2013/4/3 3:32,4.7,15,4.7,15,10.9,15
2013/4/3 3:33,5,16,5,16,11.6,15
2013/4/3 3:34,5.4,16,5.4,16,13.9,15
2013/4/3 3:35,5.6,15,5.6,15,11,15
2013/4/3 3:36,5.7,15,5.7,16,7.8,15
2013/4/3 3:37,5.9,16,5.9,16,9,1
2013/4/3 3:38,5.7,16,5.8,16,6.4,15
2013/4/3 3:39,5.8,16,5.8,16,11.4,1
2013/4/3 3:40,5.8,16,5.8,16,9.1,2
2013/4/3 3:41,5.4,16,5.8,16,6.3,15
2013/4/3 3:42,4.9,16,5.4,16,3.5,16
2013/4/3 3:43,4.7,16,4.8,16,5,16
2013/4/3 3:44,4.1,16,4.6,16,5.4,15
2013/4/3 3:45,3.7,15,4,16,3,15
2013/4/3 3:46,3.5,15,3.7,16,3,14
2013/4/3 3:47,3.3,15,3.4,16,3.9,15
2013/4/3 3:48,3,15,3.2,16,3.8,12
2013/4/3 3:49,2.6,15,2.9,16,4.7,15
2013/4/3 3:50,2.3,14,2.6,16,3.1,15
2013/4/3 3:51,2.1,14,2.3,16,2.1,9
2013/4/3 3:52,2.3,14,2.3,16,7.8,1
2013/4/3 3:53,2.6,14,2.6,16,10.5,1
2013/4/3 3:54,2.9,15,2.9,16,8.1,16
2013/4/3 3:55,3.3,15,3.3,15,10.1,16
2013/4/3 3:56,3.7,15,3.7,15,8.3,15
2013/4/3 3:57,4,15,4,15,8.6,16
2013/4/3 3:58,4.5,16,4.5,16,10.2,15
2013/4/3 3:59,4.8,15,4.8,15,7.9,13
2013/4/3 4:00,4.8,15,4.8,15,3.2,12
2013/4/3 4:01,5,15,5,15,4.7,14
2013/4/3 4:02,5,15,5,15,8.5,1
2013/4/3 4:03,5,15,5.1,15,10.3,16
2013/4/3 4:04,5.4,15,5.5,15,15.2,12
2013/4/3 4:05,5.1,15,5.3,15,4.2,16
2013/4/3 4:06,5.1,15,5.1,15,8.2,16
2013/4/3 4:07,4.9,15,5,15,7.4,15
2013/4/3 4:08,4.4,15,4.8,15,3.7,15
2013/4/3 4:09,4.2,15,4.4,15,4.9,15
2013/4/3 4:10,4.6,16,4.6,15,10.2,15
2013/4/3 4:11,4.9,15,4.9,15,11.5,14
2013/4/3 4:12,5,15,5.1,15,11.6,1
2013/4/3 4:13,4.6,15,4.9,15,5.7,1
2013/4/3 4:14,4.2,16,4.6,15,12.6,15
2013/4/3 4:15,4.8,16,4.8,15,14,14
2013/4/3 4:16,5.5,16,5.5,16,17.9,1
2013/4/3 4:17,5.7,16,5.7,16,10.3,15
2013/4/3 4:18,6,16,6,16,7.1,15
2013/4/3 4:19,6.5,15,6.5,15,11.9,15
2013/4/3 4:20,6.4,15,6.5,15,14.3,12
2013/4/3 4:21,6.6,16,6.6,16,11.7,16
2013/4/3 4:22,6.6,16,6.6,16,12.3,15
2013/4/3 4:23,6.9,16,6.9,16,14.3,16
2013/4/3 4:24,7.1,15,7.1,15,11.4,16
2013/4/3 4:25,6.7,16,7.1,15,7.6,2
2013/4/3 4:26,5.8,16,6.6,15,5.1,16
2013/4/3 4:27,6.1,16,6.1,15,15.6,16
2013/4/3 4:28,6.3,16,6.3,15,14.3,16
2013/4/3 4:29,6,16,6.3,15,9.4,15
2013/4/3 4:30,6.1,16,6.1,15,11.3,16
2013/4/3 4:31,6,16,6.1,15,10.5,16
2013/4/3 4:32,5.9,16,6,15,7.2,15
2013/4/3 4:33,5.8,16,5.9,15,9.5,1
2013/4/3 4:34,5.7,16,5.7,15,8.4,1
2013/4/3 4:35,5.8,16,5.8,16,11,15
2013/4/3 4:36,6.5,16,6.5,16,14.2,16
2013/4/3 4:37,6.1,16,6.6,16,12.2,13
2013/4/3 4:38,5.6,16,6,16,3.5,14
2013/4/3 4:39,5.3,16,5.5,16,2.9,13
2013/4/3 4:40,4.8,15,5.2,16,5.6,16
2013/4/3 4:41,4.6,15,4.8,16,6.5,1
2013/4/3 4:42,4.4,15,4.6,16,5.1,16
2013/4/3 4:43,4.1,15,4.4,16,4.5,16
2013/4/3 4:44,3.6,15,4,16,2.4,15
2013/4/3 4:45,3.4,15,3.6,16,3.7,15
2013/4/3 4:46,2.6,15,3.3,16,4.3,16
2013/4/3 4:47,2.4,16,2.6,16,5.8,15
2013/4/3 4:48,2.6,16,2.6,16,5.4,1
2013/4/3 4:49,2.8,16,2.8,15,5,3
2013/4/3 4:50,2.7,16,2.8,15,4.7,16
2013/4/3 4:51,3,16,3,15,11.3,1
2013/4/3 4:52,3.2,1,3.2,15,8.5,16
2013/4/3 4:53,3.3,1,3.3,15,4.9,1
2013/4/3 4:54,3.4,1,3.4,15,3.5,2
2013/4/3 4:55,3.3,1,3.4,1,2.1,1
2013/4/3 4:56,3.1,1,3.2,1,1,14
2013/4/3 4:57,2.9,1,3,1,4.2,11
2013/4/3 4:58,2.7,16,2.9,1,2.7,8
2013/4/3 4:59,2.5,16,2.7,1,2.2,11
2013/4/3 5:00,2.3,16,2.5,1,2.7,9
2013/4/3 5:01,1.8,15,2.3,1,3.5,8
2013/4/3 5:02,1.6,8,1.8,1,3.2,7
2013/4/3 5:03,1.5,8,1.6,1,3.5,7
2013/4/3 5:04,1.4,9,1.5,1,3.3,5
2013/4/3 5:05,1.4,9,1.5,1,2.2,13
2013/4/3 5:06,1.5,8,1.5,1,2.1,8
2013/4/3 5:07,1.5,8,1.5,1,2.1,16
2013/4/3 5:08,1.5,8,1.5,16,3,15
2013/4/3 5:09,1.6,7,1.6,16,2.9,16
2013/4/3 5:10,1.6,9,1.7,16,2.5,15
2013/4/3 5:11,1.5,14,1.6,14,1.9,16
2013/4/3 5:12,1.4,16,1.5,8,1.9,15
2013/4/3 5:13,1.5,16,1.5,8,4.7,2
2013/4/3 5:14,1.6,16,1.6,8,7.5,15
2013/4/3 5:15,2,16,2,16,8.1,2
2013/4/3 5:16,2,16,2,16,3.5,15
2013/4/3 5:17,2.2,16,2.2,16,5.4,2
2013/4/3 5:18,2.3,16,2.3,16,4.8,1
2013/4/3 5:19,2.5,16,2.5,16,6.5,16
2013/4/3 5:20,2.7,16,2.7,16,6.1,15
2013/4/3 5:21,3,1,3,1,7.1,16
2013/4/3 5:22,3,1,3,1,3.7,1
2013/4/3 5:23,3,16,3,1,4.4,16
2013/4/3 5:24,2.9,16,3,1,6.1,16
2013/4/3 5:25,2.6,16,2.9,1,3,14
2013/4/3 5:26,2.6,16,2.6,1,3.5,15
2013/4/3 5:27,2.6,15,2.6,1,5.4,1
2013/4/3 5:28,2.5,16,2.5,1,3.8,3
2013/4/3 5:29,2.4,15,2.5,1,4.3,12
2013/4/3 5:30,2.4,15,2.4,1,4.7,13
2013/4/3 5:31,2.2,15,2.4,1,2.9,13
2013/4/3 5:32,2.1,15,2.2,1,1.8,9
2013/4/3 5:33,2,14,2.1,16,3.5,8
2013/4/3 5:34,2,14,2,16,3.1,6
2013/4/3 5:35,2,16,2,16,3.8,4
2013/4/3 5:36,2.1,2,2.1,16,4.9,5
2013/4/3 5:37,2.1,4,2.1,15,4.3,3
2013/4/3 5:38,2.1,4,2.1,15,4.3,3
2013/4/3 5:39,2.1,4,2.2,15,4.8,2
2013/4/3 5:40,2.2,4,2.2,15,7,1
2013/4/3 5:41,2.3,4,2.3,4,6.7,1
2013/4/3 5:42,2.7,3,2.7,3,6,2
2013/4/3 5:43,2.9,3,2.9,3,5.8,5
2013/4/3 5:44,3.1,4,3.1,4,4.9,5
2013/4/3 5:45,3.1,4,3.1,4,3.6,1
2013/4/3 5:46,3.1,3,3.1,4,7.1,2
2013/4/3 5:47,3.2,3,3.2,3,8.1,1
2013/4/3 5:48,3.3,3,3.4,3,4.7,4
2013/4/3 5:49,3.4,3,3.4,3,5.2,5
2013/4/3 5:50,3.2,3,3.4,3,3.6,3
2013/4/3 5:51,3.1,3,3.2,3,3.5,3
2013/4/3 5:52,2.8,3,3,3,3.2,3
2013/4/3 5:53,2.5,3,2.7,3,2.1,14
2013/4/3 5:54,2.3,2,2.5,3,2.1,15
2013/4/3 5:55,2.2,2,2.2,3,2.4,16
2013/4/3 5:56,2.1,2,2.2,3,4.5,16
2013/4/3 5:57,2.1,1,2.1,3,5.7,14
2013/4/3 5:58,2.4,16,2.4,3,11.1,8
2013/4/3 5:59,2.4,16,2.5,3,11.3,8
2013/4/3 6:00,2.6,16,2.6,3,5.8,7
2013/4/3 6:01,3,16,3,3,7.5,3
2013/4/3 6:02,3.3,1,3.3,1,5.8,2
2013/4/3 6:03,3.5,3,3.5,3,5.8,3
2013/4/3 6:04,3.8,2,3.8,2,10.8,16
2013/4/3 6:05,4,2,4,2,9.2,16
2013/4/3 6:06,3.9,2,4,2,2.7,12
2013/4/3 6:07,3.8,1,3.9,2,3.7,16
2013/4/3 6:08,3.5,2,3.8,2,7.7,2
2013/4/3 6:09,3.5,1,3.5,2,8.2,16
2013/4/3 6:10,3.4,1,3.5,2,5.2,9
2013/4/3 6:11,3.2,1,3.4,2,5.6,8
2013/4/3 6:12,3.1,16,3.2,2,5.4,8
2013/4/3 6:13,3,15,3.1,2,4.9,10
2013/4/3 6:14,2.7,12,3,2,3.5,11
2013/4/3 6:15,2.5,12,2.7,2,3.2,16
2013/4/3 6:16,2.4,8,2.5,2,3.7,1
2013/4/3 6:17,2.5,8,2.5,2,4.4,9
2013/4/3 6:18,2.6,8,2.7,1,6.5,8
2013/4/3 6:19,2.4,9,2.6,1,6.1,9
2013/4/3 6:20,2.4,10,2.5,1,5,13
2013/4/3 6:21,2.3,10,2.4,1,3.5,15
2013/4/3 6:22,2.3,10,2.3,16,4.9,5
2013/4/3 6:23,2.4,9,2.4,15,5,4
2013/4/3 6:24,2.5,12,2.5,12,4.1,15
2013/4/3 6:25,2.4,13,2.5,8,1,14
2013/4/3 6:26,2.5,12,2.5,8,2.5,6
2013/4/3 6:27,2.6,1,2.6,8,9.3,5
2013/4/3 6:28,2.5,2,2.6,8,3.7,7
2013/4/3 6:29,2.5,3,2.5,13,4.7,4
2013/4/3 6:30,2.6,4,2.6,13,5.5,7
2013/4/3 6:31,2.7,5,2.7,5,6.5,9
2013/4/3 6:32,2.8,6,2.9,6,6.2,8
2013/4/3 6:33,3,7,3,7,8.4,9
2013/4/3 6:34,3.2,8,3.2,8,7.6,9
2013/4/3 6:35,3.3,8,3.3,8,5.5,10
2013/4/3 6:36,3.3,8,3.4,8,4.2,10
2013/4/3 6:37,3,8,3.3,8,2.6,5
2013/4/3 6:38,3,8,3,8,2.2,2
2013/4/3 6:39,2.7,8,2.9,8,1.6,5
2013/4/3 6:40,2.5,8,2.7,8,2.5,6
2013/4/3 6:41,2.5,8,2.5,8,3.6,6
2013/4/3 6:42,2.4,7,2.5,8,4.4,6
2013/4/3 6:43,2.2,7,2.4,8,3.9,7
2013/4/3 6:44,1.8,7,2.1,8,2.1,7
2013/4/3 6:45,1.7,7,1.8,8,1.5,15
2013/4/3 6:46,1.6,7,1.6,8,2.7,8
2013/4/3 6:47,1.5,7,1.6,8,1.1,14
2013/4/3 6:48,1.5,8,1.5,8,2.2,9
2013/4/3 6:49,1.7,8,1.7,8,3.7,8
2013/4/3 6:50,1.7,8,1.7,8,3.6,7
2013/4/3 6:51,1.6,8,1.7,8,3.6,7
2013/4/3 6:52,1.5,8,1.6,7,3.7,6
2013/4/3 6:53,1.5,8,1.5,7,3.9,6
2013/4/3 6:54,1.6,8,1.6,7,3.3,7
2013/4/3 6:55,1.8,7,1.8,7,3.6,6
2013/4/3 6:56,1.9,7,1.9,7,3.2,6
2013/4/3 6:57,2.1,7,2.1,7,3.7,7
2013/4/3 6:58,2.2,7,2.2,7,4.2,8
2013/4/3 6:59,2.4,7,2.4,7,6,9
2013/4/3 7:00,2.4,7,2.4,7,5.2,8
2013/4/3 7:01,2.3,8,2.4,7,2.5,11
2013/4/3 7:02,2.2,8,2.3,7,2.6,16
2013/4/3 7:03,2,9,2.1,7,2,8
2013/4/3 7:04,1.9,9,2,7,2.5,9
2013/4/3 7:05,2,9,2,7,5.6,3
2013/4/3 7:06,2.2,9,2.2,7,5.7,3
2013/4/3 7:07,2.1,9,2.2,7,2.7,3
2013/4/3 7:08,2.1,12,2.1,7,5.2,13
2013/4/3 7:09,2,14,2.2,7,5.8,13
2013/4/3 7:10,2.1,16,2.1,7,4.1,5
2013/4/3 7:11,2.2,1,2.2,8,5.4,1
2013/4/3 7:12,2.4,2,2.4,1,6.3,3
2013/4/3 7:13,2.6,2,2.6,2,7.4,1
2013/4/3 7:14,2.9,1,2.9,1,5.5,1
2013/4/3 7:15,2.9,16,3,1,5.1,14
2013/4/3 7:16,2.8,16,2.9,1,5.1,15
2013/4/3 7:17,2.9,15,2.9,1,4.2,10
2013/4/3 7:18,3,15,3,1,7.2,10
2013/4/3 7:19,3,15,3,1,5.1,10
2013/4/3 7:20,3,14,3,1,4.3,8
2013/4/3 7:21,2.9,13,3,1,2.6,11
2013/4/3 7:22,2.8,12,2.9,1,5.4,8
2013/4/3 7:23,2.8,11,2.8,1,5.4,9
2013/4/3 7:24,2.7,10,2.8,1,4.8,10
2013/4/3 7:25,2.6,9,2.7,15,4.7,9
2013/4/3 7:26,2.4,9,2.6,15,1.4,8
2013/4/3 7:27,2.4,8,2.4,15,3,3
2013/4/3 7:28,2,8,2.3,15,1.6,6
2013/4/3 7:29,1.9,8,1.9,15,1.6,4
2013/4/3 7:30,1.8,7,1.9,14,2.4,7
2013/4/3 7:31,1.8,7,1.8,13,2,6
2013/4/3 7:32,1.6,6,1.8,11,1,2
2013/4/3 7:33,1.3,5,1.5,11,2.7,16
2013/4/3 7:34,1.4,4,1.4,10,3.9,1
2013/4/3 7:35,1.4,3,1.4,9,4.7,3
2013/4/3 7:36,1.6,3,1.6,8,3.8,15
2013/4/3 7:37,1.4,2,1.6,8,2.1,15
2013/4/3 7:38,1.5,3,1.5,8,1.9,8
2013/4/3 7:39,1.6,3,1.6,8,3.1,6
2013/4/3 7:40,1.6,3,1.6,7,3,5
2013/4/3 7:41,1.6,2,1.6,7,2.5,3
2013/4/3 7:42,1.6,2,1.6,3,1.6,16
2013/4/3 7:43,1.6,3,1.6,3,2.7,4
2013/4/3 7:44,1.5,3,1.6,3,1.5,5
2013/4/3 7:45,1.4,5,1.5,3,5,10
2013/4/3 7:46,1.3,6,1.4,3,2.2,8
2013/4/3 7:47,1.3,5,1.3,3,2,6
2013/4/3 7:48,1.3,5,1.3,3,2.5,9
2013/4/3 7:49,1.3,6,1.3,3,4.4,7
2013/4/3 7:50,1.4,7,1.4,3,3.5,9
2013/4/3 7:51,1.4,7,1.4,2,3.7,8
2013/4/3 7:52,1.5,8,1.5,2,2.6,12
2013/4/3 7:53,1.5,8,1.5,3,3.5,9
2013/4/3 7:54,1.6,8,1.6,8,2.9,10
2013/4/3 7:55,1.5,9,1.6,8,2.9,12
2013/4/3 7:56,1.6,8,1.6,8,3.9,8
2013/4/3 7:57,1.7,9,1.7,9,3.1,8
2013/4/3 7:58,1.7,9,1.7,9,2.6,9
2013/4/3 7:59,1.6,9,1.7,9,2,9
2013/4/3 8:00,1.5,9,1.6,9,2,8
2013/4/3 8:01,1.4,9,1.5,9,0.9,10
2013/4/3 8:02,1.3,9,1.4,9,1.5,9
2013/4/3 8:03,1.2,9,1.3,9,2.6,8
2013/4/3 8:04,1.3,9,1.3,9,3.3,13
2013/4/3 8:05,1.2,9,1.3,9,2.4,11
2013/4/3 8:06,1.1,9,1.2,9,2.7,1
2013/4/3 8:07,1.1,10,1.1,9,2.9,1
2013/4/3 8:08,1.1,11,1.1,9,2.1,1
2013/4/3 8:09,1.3,13,1.3,9,4.8,14
2013/4/3 8:10,1.4,14,1.4,9,3.7,16
2013/4/3 8:11,1.6,15,1.6,15,4.8,15
2013/4/3 8:12,1.8,15,1.8,15,4.2,16
2013/4/3 8:13,1.9,15,1.9,15,2.7,10
2013/4/3 8:14,1.8,16,1.9,15,2.5,4
2013/4/3 8:15,1.9,16,1.9,15,2.5,15
2013/4/3 8:16,2,15,2,15,3.2,10
2013/4/3 8:17,1.9,15,2,15,3.3,10
2013/4/3 8:18,1.9,15,1.9,15,1.4,7
2013/4/3 8:19,1.7,14,1.8,15,3.3,9
2013/4/3 8:20,1.8,13,1.8,15,6.3,9
2013/4/3 8:21,1.8,13,1.9,15,3.8,11
2013/4/3 8:22,1.7,12,1.8,15,3.3,13
2013/4/3 8:23,1.8,12,1.8,15,3.5,10
2013/4/3 8:24,1.8,12,1.8,15,2.6,12
2013/4/3 8:25,1.7,12,1.8,15,2.6,15
2013/4/3 8:26,1.8,12,1.8,15,5.1,9
2013/4/3 8:27,2,12,2,12,5.6,11
2013/4/3 8:28,2.2,12,2.2,12,4.1,11
2013/4/3 8:29,2.3,12,2.3,12,3.2,14
2013/4/3 8:30,2.1,13,2.3,12,2.1,12
2013/4/3 8:31,2,13,2.1,12,2,16
2013/4/3 8:32,1.8,13,1.9,12,1.5,2
2013/4/3 8:33,1.7,14,1.8,12,0.9,4
2013/4/3 8:34,1.6,14,1.7,12,1.5,15
2013/4/3 8:35,1.5,15,1.6,12,1.3,16
2013/4/3 8:36,1.4,15,1.5,12,1.9,7
2013/4/3 8:37,1.1,16,1.4,12,0.8,13
2013/4/3 8:38,0.9,1,1.1,12,1.1,2
2013/4/3 8:39,0.7,2,0.9,12,1.6,4
2013/4/3 8:40,0.6,2,0.7,13,2,16
2013/4/3 8:41,0.7,2,0.7,13,3,1
2013/4/3 8:42,0.8,2,0.8,13,4.1,16
2013/4/3 8:43,0.9,1,0.9,14,3.5,16
2013/4/3 8:44,0.9,1,1,14,1.5,9
2013/4/3 8:45,1.1,2,1.1,15,4.4,7
2013/4/3 8:46,1.3,2,1.3,16,4.5,3
2013/4/3 8:47,1.5,2,1.5,2,6.2,16
2013/4/3 8:48,1.8,1,1.8,1,5.4,1
2013/4/3 8:49,2.2,16,2.2,16,6.8,14
2013/4/3 8:50,2.3,16,2.3,16,4.2,14
2013/4/3 8:51,2.2,16,2.3,16,1.4,6
2013/4/3 8:52,2.1,1,2.2,16,1,8
2013/4/3 8:53,2,2,2.1,16,1.1,5
2013/4/3 8:54,2,3,2,16,1.1,5
2013/4/3 8:55,1.8,3,2,16,1.5,9
2013/4/3 8:56,1.8,3,1.8,16,3.5,8
2013/4/3 8:57,1.6,5,1.8,16,2.6,9
2013/4/3 8:58,1.3,6,1.5,16,2.5,11
2013/4/3 8:59,1,7,1.3,16,2.2,12
2013/4/3 9:00,1.1,7,1.1,16,4.7,10
2013/4/3 9:01,1.4,8,1.4,16,4.8,11
2013/4/3 9:02,1.5,9,1.5,1,4.7,11
2013/4/3 9:03,1.7,9,1.7,2,3.3,13
2013/4/3 9:04,1.8,10,1.8,3,2.4,12
2013/4/3 9:05,1.9,10,1.9,10,3.6,10
2013/4/3 9:06,1.9,11,1.9,10,3.3,9
2013/4/3 9:07,1.8,11,1.8,10,2.7,15
2013/4/3 9:08,1.9,12,1.9,10,2.7,16
2013/4/3 9:09,1.8,12,1.9,10,2.2,15
2013/4/3 9:10,1.6,12,1.8,10,1.8,9
2013/4/3 9:11,1.4,12,1.6,10,2.6,9
2013/4/3 9:12,1.3,12,1.4,10,2.4,9
2013/4/3 9:13,1.2,12,1.3,10,6.3,11
2013/4/3 9:14,1.3,12,1.3,10,4.5,12
2013/4/3 9:15,1.3,12,1.3,10,5.4,13
2013/4/3 9:16,1.4,12,1.4,11,4.8,11
2013/4/3 9:17,1.5,11,1.5,11,4.2,9
2013/4/3 9:18,1.5,11,1.5,12,3.9,9
2013/4/3 9:19,1.7,11,1.7,12,4.9,13
2013/4/3 9:20,1.8,11,1.8,11,3.2,13
2013/4/3 9:21,1.8,12,1.8,11,2.1,14
2013/4/3 9:22,1.7,12,1.8,11,1.8,6
2013/4/3 9:23,1.8,12,1.9,12,3.7,11
2013/4/3 9:24,1.9,12,1.9,12,4.1,10
2013/4/3 9:25,1.9,11,1.9,12,3.5,10
2013/4/3 9:26,1.8,12,1.9,12,2,11
2013/4/3 9:27,1.7,12,1.8,12,3,16
2013/4/3 9:28,1.7,12,1.7,12,3.1,3
2013/4/3 9:29,1.5,12,1.7,12,1.3,6
2013/4/3 9:30,1.5,11,1.5,12,2.6,12
2013/4/3 9:31,1.6,11,1.6,12,3.7,9
2013/4/3 9:32,1.7,11,1.7,12,4.4,10
2013/4/3 9:33,1.7,12,1.7,12,3.8,15
2013/4/3 9:34,1.7,13,1.7,11,4.3,15
2013/4/3 9:35,1.6,14,1.7,11,4.1,15
2013/4/3 9:36,1.5,14,1.6,12,1.1,9
2013/4/3 9:37,1.5,12,1.5,12,3.5,8
2013/4/3 9:38,1.6,12,1.6,12,4.9,9
2013/4/3 9:39,1.6,12,1.6,11,3.7,15
2013/4/3 9:40,1.6,12,1.7,11,2.5,16
2013/4/3 9:41,1.6,13,1.6,11,2.5,1
2013/4/3 9:42,1.4,13,1.6,11,1.8,1
2013/4/3 9:43,1.3,13,1.4,12,3.1,1
2013/4/3 9:44,1.3,13,1.4,13,6.2,16
2013/4/3 9:45,1.8,14,1.8,14,10.1,16
2013/4/3 9:46,2.1,14,2.1,14,6.7,14
2013/4/3 9:47,2.6,15,2.6,15,8.6,14
2013/4/3 9:48,2.9,15,2.9,15,8.9,15
2013/4/3 9:49,3.5,15,3.5,15,11.5,1
2013/4/3 9:50,3.8,15,3.8,15,8.7,14
2013/4/3 9:51,3.9,15,3.9,15,5.1,13
2013/4/3 9:52,4.1,15,4.1,15,4.1,2
2013/4/3 9:53,4.2,15,4.2,15,4.1,15
2013/4/3 9:54,4.3,15,4.3,15,7.5,16
2013/4/3 9:55,4.1,15,4.3,15,8.3,16
2013/4/3 9:56,4.1,15,4.1,15,7.8,16
2013/4/3 9:57,4,15,4.1,15,10.9,16
2013/4/3 9:58,4.4,15,4.4,15,12.8,16
2013/4/3 9:59,4.1,15,4.4,15,8.4,15
2013/4/3 10:00,4.1,15,4.1,15,10.6,14
2013/4/3 10:01,4,15,4.1,15,4.8,14
2013/4/3 10:02,4,15,4,15,6.3,1
2013/4/3 10:03,4.2,15,4.2,15,6.5,16
2013/4/3 10:04,4.2,15,4.2,15,7.8,15
2013/4/3 10:05,4.8,15,4.8,15,13.9,16
2013/4/3 10:06,5,15,5,15,10.5,15
2013/4/3 10:07,4.8,15,5,15,5.5,15
2013/4/3 10:08,4.3,15,4.8,15,7.2,15
2013/4/3 10:09,4.6,15,4.6,15,10,15
2013/4/3 10:10,4.6,15,4.7,15,8.3,13
2013/4/3 10:11,4.8,16,4.8,15,6.4,16
2013/4/3 10:12,5.1,15,5.2,15,9.5,15
2013/4/3 10:13,5.2,15,5.2,15,8.5,15
2013/4/3 10:14,5.4,15,5.4,15,9.3,14
2013/4/3 10:15,4.9,15,5.4,15,8.6,14
2013/4/3 10:16,4.9,15,4.9,15,8.9,15
2013/4/3 10:17,5,15,5,15,8.9,14
2013/4/3 10:18,5,15,5.1,15,7,16
2013/4/3 10:19,4.7,15,5,15,7,15
2013/4/3 10:20,4.7,15,4.7,15,8.9,2
2013/4/3 10:21,5,15,5,15,14.4,15
2013/4/3 10:22,4.8,15,5,15,7.1,14
2013/4/3 10:23,4.9,15,4.9,15,8.5,16
2013/4/3 10:24,4.8,15,5,15,9,16
2013/4/3 10:25,4.6,15,4.8,15,4.7,13
2013/4/3 10:26,4.7,15,4.7,15,12.8,15
2013/4/3 10:27,4.6,15,4.8,15,12.3,16
2013/4/3 10:28,4.4,15,4.6,15,4.8,16
2013/4/3 10:29,4.6,15,4.6,15,8.4,15
2013/4/3 10:30,4.5,15,4.6,15,6.8,14
2013/4/3 10:31,3.9,15,4.5,15,4.1,14
2013/4/3 10:32,4,15,4,15,7.4,1
2013/4/3 10:33,3.8,15,4,15,6.2,15
2013/4/3 10:34,3.6,15,3.7,15,6.2,16
2013/4/3 10:35,3.9,15,4,15,8.9,16
2013/4/3 10:36,3.7,15,4,15,6.3,16
2013/4/3 10:37,3.9,16,3.9,15,8.6,16
2013/4/3 10:38,4.1,16,4.1,15,8.5,16
2013/4/3 10:39,4,16,4,15,12.3,2
2013/4/3 10:40,4.3,16,4.3,15,9.8,1
2013/4/3 10:41,4.6,16,4.6,16,10.2,16
2013/4/3 10:42,4.5,16,4.6,16,6.1,15
2013/4/3 10:43,4.5,16,4.5,16,7.7,15
2013/4/3 10:44,4.6,16,4.7,16,12.4,16
2013/4/3 10:45,4.4,16,4.6,16,5.8,16
2013/4/3 10:46,4.6,16,4.6,16,8.9,1
2013/4/3 10:47,4.5,16,4.6,16,11.3,15
2013/4/3 10:48,4.6,16,4.6,16,11.4,16
2013/4/3 10:49,4.5,16,4.8,16,10.6,15
2013/4/3 10:50,4.4,16,4.4,16,12.8,16
2013/4/3 10:51,4.2,16,4.5,16,11.5,16
2013/4/3 10:52,4.6,16,4.6,16,13.1,1
2013/4/3 10:53,4.8,16,4.8,16,9.5,1
2013/4/3 10:54,4.8,16,4.9,16,9,16
2013/4/3 10:55,4.8,16,4.8,16,8.6,16
2013/4/3 10:56,4.9,16,5,16,12.4,15
2013/4/3 10:57,4.8,16,4.9,16,8.4,1
2013/4/3 10:58,4.6,16,4.9,16,8.1,16
2013/4/3 10:59,4.7,16,4.7,16,11.1,15
2013/4/3 11:00,4.8,16,4.9,16,11.1,1
2013/4/3 11:01,5.3,16,5.3,16,13.9,16
2013/4/3 11:02,5.2,16,5.3,16,8.2,1
2013/4/3 11:03,5.3,16,5.4,16,11.7,1
2013/4/3 11:04,5.5,16,5.5,16,11.3,16
2013/4/3 11:05,5.9,16,5.9,16,10.9,16
2013/4/3 11:06,6.1,16,6.1,16,13.6,16
2013/4/3 11:07,6.4,16,6.4,16,12.3,15
2013/4/3 11:08,6.5,16,6.5,16,9.5,15
2013/4/3 11:09,6.4,16,6.6,16,6.3,16
2013/4/3 11:10,6.3,16,6.4,16,10.3,1
2013/4/3 11:11,6.1,16,6.4,16,10.3,16
2013/4/3 11:12,6.5,16,6.5,16,15.2,16
2013/4/3 11:13,6.6,16,6.6,16,12.7,16
2013/4/3 11:14,6.6,16,6.6,16,10.2,1
2013/4/3 11:15,6.5,16,6.6,16,11.6,15
2013/4/3 11:16,6.4,16,6.6,16,11.3,14
2013/4/3 11:17,6.1,16,6.3,16,8.5,14
2013/4/3 11:18,6.7,16,6.7,16,15.3,16